カタログに戻る

DELTA 1 DEB

運用中LEO
NORAD 7069·DEBRIS·🇺🇸 United States

打ち上げ Nov 6, 1973 から Vandenberg Space Force Base

Loading…

次のパス (今後24時間)

TLE

最新Source: Space-Track

元期: Sep 14, 2026, 03:18 UTC

1 07069U 73086BM  26257.13779276  .00001493  00000-0  16634-2 0  9999
2 07069 102.7775 326.2809 0247690 178.8992 181.2732 13.61527501574466

AllMySatでDELTA 1 DEBをリアルタイム追跡

Download on the App Store